Skip to main content.
NOAA NWS Hourly Roundups by Site

NOAA NWS Hourly Roundups by Site

Regional Weather Roundup for Omaha, NE

To Select Another Site Choose from List

Select Site:  

000
ASUS43 KOAX 201510
RWRNE

WEATHER ROUNDUP FOR NEBRASKA
NATIONAL WEATHER SERVICE OMAHA NE
1000 AM CDT MON MAY 20 2019

NOTES: SATELLITE DATA IS BEING USED TO AUGMENT CLOUD COVER ABOVE
       12000 FEET.
       "FAIR" INDICATES FEW OR NO CLOUDS BELOW 12,000 FEET WITH NO
       SIGNIFICANT WEATHER AND/OR OBSTRUCTIONS TO VISIBILITY.


NEZ001>004-019>022-054>056-201600-
NEBRASKA PANHANDLE

CITY           SKY/WX    TMP DP  RH WIND       PRES   REMARKS
SCOTTSBLUFF    CLOUDY    38  38 100 SE15      29.98S FOG     WCI  29
ALLIANCE       LGT RAIN  37  37 100 SE13      29.99S FOG     WCI  29
CHADRON        LGT RAIN  38  36  92 E7        30.03S WCI  33
GORDON         RAIN      37  36  94 E12       30.04R WCI  30
KIMBALL        LGT RAIN  36  35  97 SE14      29.96F WCI  27
SIDNEY         LGT RAIN  37  34  89 SE13      29.97S WCI  29
$$

NEZ057>060-069>072-079>082-201600-
SOUTHWEST NEBRASKA

CITY           SKY/WX    TMP DP  RH WIND       PRES   REMARKS
NORTH PLATTE   RAIN      41  40  96 E12       30.02F FOG
IMPERIAL       CLOUDY    40  35  83 E18G24    29.98F WCI  31
LEXINGTON      LGT RAIN  43  41  90 E14       30.05F
MCCOOK         CLOUDY    44  39  82 E21G29    29.97F
OGALLALA       LGT RAIN  41  40  97 E13G20    30.01S
$$

NEZ005>010-023>029-035>040-094-201600-
NORTH CENTRAL NEBRASKA

CITY           SKY/WX    TMP DP  RH WIND       PRES   REMARKS
VALENTINE      LGT RAIN  41  36  82 E12       30.10R
AINSWORTH      CLOUDY    39  39 100 E12       30.10F WCI  32
BROKEN BOW     CLOUDY    42  42 100 SE12      30.08R
O`NEILL        CLOUDY    42  40  91 E10       30.13F
ORD            LGT RAIN  42  37  82 E12       30.08
THEDFORD       DRIZZLE   41  39  95 E13       30.08R
$$

NEZ041-046>049-061>064-073>077-083>087-201600-
SOUTH CENTRAL NEBRASKA

CITY           SKY/WX    TMP DP  RH WIND       PRES   REMARKS
GRAND ISLAND   LGT RAIN  44  38  79 SE8       30.12R
AURORA         CLOUDY    44  38  81 E13       30.11R
HASTINGS       LGT RAIN  44  40  85 E7        30.12R
HEBRON         LGT RAIN  47  39  75 E5        30.15R
HOLDREGE       LGT RAIN  43  42  98 E18G25    30.05S
KEARNEY        LGT RAIN  43  41  93 E17       30.08
YORK           FAIR      45  37  76 E14       30.11R
$$

NEZ011>018-030>034-042>045-201600-
NORTHEAST NEBRASKA

CITY           SKY/WX    TMP DP  RH WIND       PRES   REMARKS
NORFOLK        PTSUNNY   42  38  85 NE10      30.12F
ALBION         CLOUDY    43  39  84 E9        30.11F
BLAIR          PTSUNNY   45  29  54 NE12      30.14F
COLUMBUS       CLOUDY    44  37  76 E14       30.12F
FREMONT        PTSUNNY   46  38  72 NE10      30.14F
TEKAMAH        FAIR      46  38  73 E10       30.17S
WAYNE          CLOUDY    43  36  75 E12       30.14F
$$

NEZ050>053-065>068-078-088>093-201600-
SOUTHEAST NEBRASKA

CITY           SKY/WX    TMP DP  RH WIND       PRES   REMARKS
LINCOLN        FAIR      47  38  71 NE16G22   30.12F
OMAHA EPPLEY   CLOUDY    48  38  68 NE10      30.16S
BEATRICE       FAIR      48  40  74 E8        30.11S
FALLS CITY     PTSUNNY   50  41  71 NE12      30.14R
NEBRASKA CITY  CLOUDY    45  39  79 NE14      30.13F
PLATTSMOUTH    PTSUNNY   45  39  78 NE12      30.14F
$$

NEZ044-045-051>053-067-201600-
OMAHA AREA

CITY           SKY/WX    TMP DP  RH WIND       PRES   REMARKS
OMAHA EPPLEY   CLOUDY    48  38  68 NE10      30.16S
BLAIR          PTSUNNY   45  29  54 NE12      30.14F
FREMONT        PTSUNNY   46  38  72 NE10      30.14F
MILLARD        CLOUDY    48  39  71 NE7       30.14F
PLATTSMOUTH    PTSUNNY   45  39  78 NE12      30.14F
WAHOO          PTSUNNY   45  39  79 NE13      30.13F
$$


 

View Past Reports for Omaha, NE.

Products Courtesy of NOAA-NWS
NWS Information Parsing Script by Ken True at Saratoga Weather - Script by SE Lincoln Weather.